Location: Madrid
(40.4000°N, 3.6830°W)
Time: 12:22:35
(UTC+01:00)

ISS - Pass Details

Date: 21 March 2019
Orbit: 408 x 411 km, 51.6° (Epoch: 24 March)

Event Time Altitude Azimuth Distance (km) Brightness Sun altitude
Rises 20:21:25 0° 211° (SSW) 2,320 0.3 -11.0°
Reaches altitude 10° 20:23:37 10° 201° (SSW) 1,463 -0.9 -11.4°
Maximum altitude 20:26:36 32° 136° (SE) 717 -3.0 -12.0°
Enters shadow 20:28:09 21° 87° (E) 981 -2.5 -12.3°
